FW0801 Weather Reports


time (UTC)temp
C
wind
direction
speed
KPH
gust
KPH
rain 1hr
cm
rain 24hr
cm
rain mn
cm
humidity
%
barometer
mb
20260507015340 13 112 14.5 16.1 0.00 2.72 0.00 98 1012.3
20260507015240 13 90 14.5 17.7 0.00 2.72 0.00 98 1012.2
20260507014939 13 90 14.5 19.3 0.00 2.72 0.00 97 1012.0
20260507014640 13 90 12.9 14.5 0.00 2.72 0.00 98 1012.0
20260507014339 13 90 12.9 14.5 0.00 2.72 0.00 98 1012.3
20260507014239 13 90 12.9 14.5 0.00 2.72 0.00 98 1012.2
20260507013839 13 90 14.5 16.1 0.00 2.72 0.00 98 1012.0
20260507013539 13 90 14.5 17.7 0.00 2.72 0.00 98 1012.0
20260507013340 13 90 12.9 14.5 0.00 2.72 0.00 99 1012.2
20260507012639 13 90 12.9 17.7 0.00 2.72 0.00 98 1012.1
20260507012440 13 90 11.3 14.5 0.00 2.72 0.00 98 1012.2
20260507012340 13 90 11.3 11.3 0.00 2.72 0.00 98 1012.1
20260507012240 13 90 12.9 14.5 0.00 2.72 0.00 98 1012.1
20260507012039 13 90 14.5 17.7 0.00 2.72 0.00 98 1012.1
20260507011939 13 68 12.9 14.5 0.00 2.72 0.00 98 1012.2
20260507011740 13 68 12.9 14.5 0.00 2.72 0.00 97 1011.9
20260507011439 13 90 12.9 14.5 0.00 2.72 0.00 98 1012.1
20260507011339 13 90 14.5 17.7 0.00 2.72 0.00 97 1012.0
20260507011039 13 90 14.5 16.1 0.00 2.72 0.00 98 1012.1
20260507010839 13 90 11.3 11.3 0.00 2.72 0.00 98 1012.1
20260507010739 13 90 9.7 12.9 0.00 2.72 0.00 98 1012.1
20260507010539 13 90 11.3 14.5 0.00 2.72 0.00 98 1012.0
20260507010240 13 90 12.9 14.5 0.00 2.72 0.00 98 1012.1
20260507010139 13 90 11.3 14.5 0.00 2.72 0.00 98 1012.2
20260507010039 13 112 11.3 14.5 0.00 2.72 0.00 97 1012.1
20260507005539 13 90 12.9 14.5 0.00 2.72 0.00 97 1012.2
20260507005240 13 112 14.5 16.1 0.00 2.72 0.00 96 1012.3
20260507004640 13 135 14.5 16.1 0.00 2.72 0.00 97 1012.1
20260507004540 13 90 14.5 17.7 0.00 2.72 0.00 97 1012.2
20260507004139 13 90 12.9 14.5 0.00 2.72 0.00 97 1012.0
20260507004040 13 112 11.3 14.5 0.00 2.72 0.00 97 1012.4
20260507003940 13 135 11.3 16.1 0.00 2.72 0.00 97 1012.3
20260507003340 13 90 11.3 17.7 0.00 2.72 0.00 98 1012.4
20260507003040 13 90 14.5 17.7 0.00 2.72 0.00 97 1012.1
20260507002939 13 90 14.5 17.7 0.00 2.72 0.00 97 1012.3
20260507002540 13 112 14.5 17.7 0.00 2.72 0.00 97 1012.1
20260507002440 13 90 14.5 19.3 0.00 2.72 0.00 98 1012.2
20260507002340 13 90 12.9 14.5 0.00 2.72 0.00 98 1012.1
20260507002039 13 112 14.5 19.3 0.00 2.72 0.00 97 1012.3
20260507001840 13 90 14.5 17.7 0.00 2.72 0.00 97 1012.0
20260507001740 13 112 14.5 17.7 0.00 2.72 0.00 98 1012.2
20260507001640 13 90 14.5 17.7 0.00 2.72 0.00 98 1012.2
20260507001239 13 90 14.5 16.1 0.00 2.72 0.00 98 1012.2
20260507001139 13 90 17.7 22.5 0.00 2.72 0.00 97 1012.3
20260507000939 13 90 17.7 20.9 0.00 2.72 0.00 97 1012.0
20260507000840 13 90 16.1 19.3 0.00 2.72 0.00 97 1012.3
20260507000640 13 90 16.1 19.3 0.00 2.72 0.00 98 1012.0
20260507000539 13 90 16.1 19.3 0.00 2.72 0.00 98 1012.2
20260507000442 13 90 16.1 19.3 0.00 2.72 0.00 98 1012.0
20260507000340 13 90 16.1 19.3 0.00 2.72 0.00 98 1012.0
20260507000140 13 90 16.1 19.3 0.00 2.72 0.00 98 1012.1
20260506235940 13 90 16.1 19.3 0.00 2.72 0.00 98 1012.0
20260506235839 13 112 14.5 17.7 0.00 2.72 0.00 98 1011.9
20260506235739 13 90 16.1 19.3 0.00 2.72 0.00 98 1012.0
20260506235639 13 90 16.1 19.3 0.00 2.72 0.00 98 1012.0
20260506235539 13 90 16.1 17.7 0.00 2.72 0.00 98 1012.1
20260506235340 13 68 17.7 20.9 0.00 2.72 0.00 97 1012.1
20260506235239 13 90 14.5 19.3 0.00 2.72 0.00 98 1011.9
20260506235139 13 90 16.1 19.3 0.00 2.72 0.00 98 1012.0
20260506235039 13 90 14.5 16.1 0.00 2.72 0.00 97 1011.9
20260506234840 13 90 17.7 19.3 0.00 2.72 0.00 97 1012.1
20260506234740 13 90 14.5 16.1 0.00 2.72 0.00 97 1012.0
20260506234640 13 90 16.1 19.3 0.00 2.72 0.00 98 1012.0
20260506234440 13 90 14.5 16.1 0.00 2.72 0.00 97 1012.0
20260506234239 13 90 14.5 17.7 0.00 2.72 0.00 98 1011.9
20260506234040 13 90 14.5 16.1 0.00 2.72 0.00 97 1011.9
20260506233939 13 90 14.5 17.7 0.00 2.72 0.00 98 1011.8
20260506233740 13 90 14.5 16.1 0.00 2.72 0.00 98 1011.9
20260506233240 13 90 12.9 14.5 0.00 2.72 0.00 98 1012.0
20260506232940 13 90 16.1 17.7 0.00 2.72 0.00 98 1011.9
20260506232739 13 90 12.9 17.7 0.00 2.72 0.00 98 1011.9
20260506232539 13 90 14.5 16.1 0.00 2.72 0.00 97 1012.0
20260506232340 13 112 12.9 14.5 0.00 2.72 0.00 98 1012.2
20260506232239 13 112 14.5 16.1 0.00 2.72 0.00 97 1012.2
20260506231940 13 90 14.5 17.7 0.00 2.72 0.00 96 1012.2
20260506231740 13 90 14.5 17.7 0.00 2.72 0.00 97 1011.9
20260506231340 13 90 14.5 19.3 0.00 2.72 0.00 98 1012.0
20260506231239 13 90 14.5 17.7 0.00 2.72 0.00 97 1012.1
20260506231139 13 90 14.5 14.5 0.00 2.72 0.00 98 1012.2
20260506230740 13 90 16.1 22.5 0.00 2.72 0.00 97 1012.1
20260506230539 13 90 14.5 19.3 0.00 2.72 0.00 98 1011.9
20260506230439 13 112 12.9 17.7 0.00 2.72 0.00 97 1011.9
20260506230140 13 90 16.1 17.7 0.00 2.72 0.00 97 1011.9
20260506225939 13 90 14.5 17.7 0.00 2.72 0.00 98 1012.0
20260506225739 13 112 14.5 19.3 0.00 2.72 0.00 97 1011.9
20260506225544 13 112 14.5 16.1 0.00 2.72 0.00 97 1011.9
20260506225240 13 112 14.5 19.3 0.00 2.72 0.00 97 1012.2
20260506225039 13 90 14.5 19.3 0.00 2.72 0.00 96 1012.0
20260506224840 13 90 14.5 19.3 0.00 2.72 0.00 97 1012.2
20260506224539 13 90 14.5 17.7 0.00 2.72 0.00 98 1012.2
20260506224340 13 90 12.9 16.1 0.00 2.72 0.00 98 1012.1
20260506223740 13 90 11.3 14.5 0.00 2.72 0.00 98 1011.8
20260506223340 13 90 14.5 17.7 0.00 2.72 0.00 97 1011.9
20260506223140 13 90 14.5 17.7 0.00 2.72 0.00 97 1012.0
20260506223040 13 112 14.5 16.1 0.00 2.72 0.00 97 1012.0
20260506222939 13 90 14.5 14.5 0.00 2.74 0.00 97 1011.8
20260506222840 13 90 14.5 17.7 0.00 2.74 0.00 98 1012.1
20260506222639 13 90 12.9 14.5 0.00 2.74 0.00 97 1012.2
20260506222239 13 90 16.1 17.7 0.00 2.74 0.00 97 1012.2
20260506222139 13 90 14.5 17.7 0.00 2.74 0.00 98 1012.1
20260506221840 14 90 16.1 17.7 0.00 2.74 0.00 96 1012.0
20260506221740 14 90 16.1 17.7 0.00 2.74 0.00 96 1012.2
20260506221640 14 90 14.5 17.7 0.00 2.74 0.00 96 1012.1
20260506221539 14 68 16.1 17.7 0.00 2.74 0.00 95 1012.3
20260506221440 14 90 16.1 19.3 0.00 2.74 0.00 96 1012.2
20260506221239 14 68 16.1 19.3 0.00 2.74 0.00 96 1012.0
20260506221140 14 68 16.1 19.3 0.00 2.74 0.00 96 1012.0
20260506220940 14 68 17.7 19.3 0.00 2.74 0.00 96 1012.2
20260506220639 13 90 17.7 19.3 0.00 2.74 0.00 97 1012.1
20260506220439 13 90 17.7 19.3 0.00 2.74 0.00 96 1012.2
20260506220240 13 112 14.5 17.7 0.00 2.74 0.00 97 1012.1
20260506215939 13 90 17.7 22.5 0.00 2.74 2.74 97 1011.9
20260506215440 13 90 16.1 17.7 0.00 2.74 2.74 97 1012.1
20260506214839 13 90 16.1 19.3 0.00 2.74 2.74 96 1012.1
20260506214739 13 90 16.1 19.3 0.00 2.74 2.74 96 1012.1
20260506214640 13 90 17.7 22.5 0.00 2.74 2.74 95 1012.0
20260506214539 13 90 17.7 22.5 0.00 2.74 2.74 95 1012.1
20260506214439 13 112 17.7 22.5 0.00 2.74 2.74 96 1012.1
20260506214240 13 68 17.7 19.3 0.00 2.74 2.74 96 1012.0
20260506214039 13 90 17.7 22.5 0.00 2.74 2.74 97 1012.1
20260506213940 13 90 16.1 19.3 0.00 2.74 2.74 97 1011.9
20260506213840 13 90 16.1 19.3 0.00 2.74 2.74 97 1012.2
20260506213740 13 90 16.1 19.3 0.00 2.74 2.74 96 1012.0
20260506213640 13 90 16.1 17.7 0.00 2.74 2.74 97 1012.0
20260506213239 13 90 17.7 19.3 0.00 2.77 2.74 97 1012.1
20260506213140 13 90 16.1 19.3 0.00 2.77 2.74 97 1011.9
20260506212840 13 90 16.1 17.7 0.00 2.77 2.74 97 1012.0
20260506212740 13 90 14.5 17.7 0.00 2.77 2.74 98 1012.1
20260506212640 13 90 16.1 17.7 0.00 2.77 2.74 97 1012.0
20260506212239 13 90 16.1 19.3 0.00 2.77 2.74 97 1012.0
20260506212140 13 90 14.5 16.1 0.00 2.82 2.74 97 1011.9
20260506212040 13 90 12.9 16.1 0.00 2.82 2.74 98 1012.0
20260506211940 13 90 14.5 19.3 0.00 2.82 2.74 98 1012.0
20260506211839 13 90 14.5 14.5 0.00 2.82 2.74 99 1012.0
20260506211739 13 68 14.5 17.7 0.00 2.84 2.74 98 1012.2
20260506211640 13 90 14.5 17.7 0.00 2.84 2.74 98 1012.0
20260506211441 13 68 14.5 19.3 0.00 2.90 2.74 98 1012.1
20260506211340 13 90 14.5 16.1 0.00 2.92 2.74 98 1011.9
20260506211240 13 90 16.1 19.3 0.00 2.92 2.74 97 1012.0
20260506210739 14 90 14.5 17.7 0.00 2.92 2.74 98 1012.0
20260506210440 13 90 12.9 16.1 0.00 2.92 2.74 97 1012.0
20260506210340 13 90 14.5 19.3 0.00 2.92 2.74 97 1011.9
20260506210239 13 90 14.5 17.7 0.00 2.92 2.74 97 1011.7
20260506210139 13 90 14.5 17.7 0.00 2.92 2.74 97 1012.0
20260506210040 13 90 14.5 17.7 0.00 2.92 2.74 97 1011.9
20260506205940 13 112 16.1 20.9 0.00 2.92 2.74 97 1011.7
20260506205640 14 90 17.7 19.3 0.00 2.92 2.74 97 1011.9
20260506205440 14 90 16.1 19.3 0.00 2.95 2.74 97 1011.9
20260506205340 14 90 16.1 17.7 0.00 2.95 2.74 98 1011.8
20260506205239 14 90 16.1 19.3 0.00 2.95 2.74 98 1012.0
20260506204940 14 90 17.7 19.3 0.00 3.05 2.74 95 1011.9
20260506204839 14 90 17.7 19.3 0.00 3.05 2.74 96 1011.9
20260506204340 14 68 17.7 20.9 0.00 3.10 2.74 97 1012.0
20260506204140 14 90 17.7 19.3 0.00 3.10 2.74 98 1011.9
20260506204040 14 90 17.7 22.5 0.00 3.10 2.74 97 1011.8
20260506203840 14 112 14.5 17.7 0.00 3.10 2.74 98 1011.9
20260506203739 14 90 14.5 17.7 0.00 3.10 2.74 98 1011.8
20260506203539 14 90 14.5 19.3 0.00 3.10 2.74 98 1011.8
20260506203439 14 90 16.1 17.7 0.00 3.10 2.74 98 1011.4
20260506203240 14 90 17.7 20.9 0.00 3.10 2.74 98 1011.5
20260506203140 14 90 14.5 17.7 0.00 3.10 2.74 98 1011.8
20260506202640 13 90 17.7 20.9 0.00 3.10 2.74 99 1011.6
20260506202440 13 90 17.7 22.5 0.00 3.10 2.74 99 1011.6
20260506202340 13 90 16.1 20.9 0.00 3.10 2.74 99 1011.8
20260506202240 14 90 16.1 19.3 0.00 3.10 2.74 99 1011.6
20260506202139 14 90 17.7 20.9 0.00 3.10 2.74 98 1011.6
20260506201940 14 90 16.1 19.3 0.00 3.10 2.74 98 1011.7
20260506201739 14 90 17.7 22.5 0.00 3.10 2.74 98 1011.7
20260506201439 14 90 16.1 22.5 0.00 3.10 2.74 98 1011.5
20260506201340 14 90 16.1 17.7 0.00 3.10 2.74 98 1011.6
20260506201239 14 90 17.7 19.3 0.00 3.10 2.74 98 1011.5
20260506201139 14 90 19.3 25.7 0.00 3.10 2.74 97 1011.5
20260506200940 14 90 16.1 19.3 0.00 3.10 2.74 98 1011.5
20260506200640 14 90 16.1 19.3 0.00 3.10 2.74 98 1011.4
20260506200539 14 90 16.1 19.3 0.00 3.10 2.74 98 1011.5
20260506200440 13 90 16.1 17.7 0.00 3.10 2.74 98 1011.5
20260506200340 14 90 14.5 17.7 0.00 3.10 2.74 99 1011.4
20260506200140 13 90 17.7 19.3 0.00 3.10 2.74 98 1011.6
20260506195839 14 90 14.5 16.1 0.00 3.10 2.74 98 1011.2
20260506195640 14 90 14.5 16.1 0.00 3.10 2.74 98 1011.1
20260506195540 14 90 14.5 19.3 0.00 3.10 2.74 97 1011.2
20260506195340 14 90 16.1 19.3 0.00 3.10 2.74 96 1011.1
20260506194840 14 90 16.1 19.3 0.00 3.10 2.74 96 1011.0
20260506194339 14 90 17.7 17.7 0.00 3.10 2.74 97 1010.9
20260506193940 14 90 16.1 17.7 0.00 3.10 2.74 96 1011.2
20260506193839 14 68 16.1 19.3 0.00 3.10 2.74 97 1010.9
20260506193340 14 90 16.1 17.7 0.00 3.10 2.74 96 1010.9
20260506193240 14 90 14.5 19.3 0.00 3.10 2.74 96 1011.1
20260506192939 14 68 14.5 19.3 0.00 3.10 2.74 96 1011.0
20260506192840 14 68 14.5 19.3 0.00 3.10 2.74 96 1011.0
20260506192539 14 90 16.1 19.3 0.00 3.10 2.74 96 1011.1
20260506191940 14 90 17.7 19.3 0.00 3.10 2.74 97 1011.0
20260506191740 14 90 17.7 19.3 0.00 3.10 2.74 96 1010.9
20260506191340 14 90 17.7 20.9 0.00 3.10 2.74 96 1010.9
20260506191039 14 90 17.7 19.3 0.00 3.10 2.74 96 1010.8
20260506190939 14 68 17.7 20.9 0.00 3.10 2.74 96 1011.0
20260506190740 14 90 17.7 19.3 0.00 3.10 2.74 96 1010.8
20260506190640 14 90 17.7 22.5 0.00 3.10 2.74 96 1010.8
20260506190539 14 68 17.7 22.5 0.00 3.10 2.74 95 1010.7
20260506190339 14 68 17.7 20.9 0.00 3.10 2.74 96 1010.9
20260506190240 14 90 17.7 19.3 0.00 3.10 2.74 95 1010.7
20260506190139 14 90 17.7 20.9 0.00 3.10 2.74 95 1010.7
20260506185840 14 90 17.7 20.9 0.00 3.10 2.74 97 1010.7
20260506185640 13 90 14.5 16.1 0.00 3.10 2.74 98 1010.7
20260506185139 13 90 16.1 17.7 0.13 3.10 2.74 98 1010.6
20260506185040 13 90 17.7 19.3 0.18 3.10 2.74 98 1010.8
20260506184839 13 90 17.7 20.9 0.43 3.10 2.74 97 1010.4
20260506184739 13 90 16.1 19.3 0.46 3.10 2.74 98 1010.7
20260506184540 14 112 17.7 20.9 0.61 3.10 2.74 97 1010.4
20260506184440 14 90 17.7 19.3 0.69 3.10 2.74 98 1010.5
20260506184240 13 90 14.5 17.7 0.79 3.10 2.74 98 1010.4
20260506184139 13 90 14.5 17.7 0.89 3.10 2.74 97 1010.5
20260506184039 13 90 14.5 19.3 0.94 3.10 2.74 97 1010.4
20260506183540 13 90 17.7 20.9 1.30 3.10 2.74 98 1010.5
20260506183239 13 68 16.1 19.3 1.50 3.10 2.74 98 1010.5
20260506183039 13 68 14.5 17.7 1.55 3.10 2.74 99 1010.5
20260506182840 13 68 14.5 17.7 1.70 3.10 2.74 99 1010.5
20260506182439 13 90 17.7 19.3 1.70 3.10 2.74 99 1010.5
20260506182339 13 90 17.7 19.3 1.70 3.10 2.74 99 1010.5
20260506182239 13 68 16.1 17.7 1.70 3.10 2.74 99 1010.5
20260506181940 12 68 17.7 19.3 1.70 3.10 2.74 99 1010.6
20260506181840 12 90 16.1 19.3 1.70 3.10 2.74 99 1010.6
20260506181740 12 90 16.1 19.3 1.70 3.10 2.74 99 1010.6
20260506181639 12 90 16.1 19.3 1.70 3.10 2.74 99 1010.6
20260506181140 12 90 16.1 17.7 1.70 3.10 2.74 99 1010.4
20260506181039 12 68 17.7 19.3 1.70 3.10 2.74 99 1010.5
20260506180540 12 90 17.7 22.5 1.70 3.10 2.74 99 1010.3
20260506180240 12 90 14.5 17.7 1.70 3.10 2.74 99 1010.5
20260506180040 11 90 14.5 16.1 1.70 3.10 2.74 99 1010.7
20260506175739 11 68 8.0 9.7 1.70 3.10 2.74 99 1010.4
20260506175639 11 90 6.4 8.0 1.68 3.07 2.72 99 1010.1
20260506175139 12 112 8.0 11.3 1.52 2.92 2.57 99 1010.0
20260506174939 12 90 3.2 6.4 1.24 2.67 2.29 99 1009.7
20260506174239 12 45 12.9 22.5 0.79 2.21 1.85 99 1010.1
20260506174039 11 0 6.4 9.7 0.71 2.11 1.75 99 1010.0
20260506173939 11 22 4.8 6.4 0.64 2.06 1.70 99 1009.9
20260506173839 11 315 6.4 12.9 0.53 1.93 1.57 99 1009.5
20260506173639 11 270 9.7 14.5 0.38 1.78 1.42 99 1009.6
20260506173340 12 315 16.1 19.3 0.20 1.60 1.24 99 1009.0
20260506173139 12 292 14.5 19.3 0.13 1.55 1.19 99 1008.8
20260506172839 15 292 14.5 22.5 0.00 1.40 1.04 93 1008.7
20260506172525 16 270 11.3 17.7 0.00 1.40 1.04 90 1008.6
20260506172240 17 248 8.0 12.9 0.00 1.40 1.04 92 1008.4
20260506172140 17 292 4.8 6.4 0.00 1.40 1.04 93 1008.5
20260506171840 18 315 1.6 3.2 0.00 1.40 1.04 92 1008.3
20260506171640 18 90 3.2 4.8 0.00 1.40 1.04 91 1008.2
20260506171540 18 90 3.2 6.4 0.00 1.40 1.04 92 1008.4
20260506171339 18 45 0.0 1.6 0.00 1.40 1.04 93 1008.1
20260506171239 18 225 0.0 1.6 0.00 1.40 1.04 93 1008.2
20260506171040 18 135 4.8 9.7 0.00 1.40 1.04 92 1007.9
20260506170939 18 112 4.8 6.4 0.00 1.40 1.04 93 1007.9
20260506170840 18 112 3.2 6.4 0.00 1.40 1.04 94 1008.1
20260506170540 17 90 1.6 1.6 0.00 1.40 1.04 95 1007.9
20260506170440 17 135 1.6 3.2 0.00 1.40 1.04 95 1007.9
20260506170240 17 270 0.0 1.6 0.00 1.40 1.04 96 1008.1
20260506170140 17 292 0.0 1.6 0.00 1.40 1.04 96 1007.8
20260506165740 17 112 3.2 4.8 0.00 1.40 1.04 95 1008.0
20260506165539 16 90 0.0 1.6 0.00 1.40 1.04 96 1008.1
20260506165439 16 158 1.6 3.2 0.00 1.40 1.04 97 1007.9
20260506165139 16 90 6.4 9.7 0.00 1.40 1.04 96 1007.9
20260506164940 17 68 8.0 9.7 0.00 1.40 1.04 95 1007.5
20260506164840 17 68 9.7 11.3 0.00 1.40 1.04 96 1007.8
20260506164440 16 68 6.4 8.0 0.00 1.40 1.04 97 1007.8
20260506164240 16 68 9.7 11.3 0.00 1.40 1.04 97 1007.7
20260506164039 16 68 9.7 11.3 0.00 1.40 1.04 97 1007.7
20260506163839 16 68 11.3 11.3 0.00 1.40 1.04 97 1007.6
20260506163739 16 68 9.7 11.3 0.00 1.40 1.04 97 1007.6
20260506163540 16 90 11.3 12.9 0.00 1.40 1.04 97 1007.7
20260506163340 16 90 8.0 11.3 0.00 1.40 1.04 97 1007.5
20260506163039 16 90 11.3 14.5 0.00 1.40 1.04 97 1007.6
20260506162639 16 68 11.3 12.9 0.00 1.40 1.04 98 1007.5
20260506162539 16 90 11.3 12.9 0.00 1.40 1.04 97 1007.6
20260506162140 16 90 12.9 16.1 0.00 1.40 1.04 97 1007.6
20260506162040 16 90 12.9 16.1 0.00 1.40 1.04 97 1007.8
20260506161939 16 68 11.3 12.9 0.00 1.40 1.04 97 1007.9
20260506161840 16 68 12.9 14.5 0.00 1.40 1.04 97 1007.8
20260506161539 16 90 12.9 14.5 0.00 1.40 1.04 97 1007.8
20260506161340 16 68 12.9 14.5 0.00 1.40 1.04 97 1007.9
20260506161139 16 68 11.3 11.3 0.00 1.40 1.04 97 1007.9
20260506161039 16 68 9.7 11.3 0.00 1.40 1.04 97 1008.0
20260506160940 16 90 9.7 11.3 0.00 1.40 1.04 97 1007.8
20260506160640 16 90 11.3 12.9 0.00 1.40 1.04 97 1008.0
20260506160340 16 68 9.7 11.3 0.00 1.40 1.04 97 1008.0
20260506160139 16 68 6.4 9.7 0.00 1.40 1.04 97 1007.9
20260506155740 16 90 11.3 12.9 0.00 1.40 1.04 97 1007.9
20260506155540 16 68 9.7 11.3 0.00 1.40 1.04 98 1007.9
20260506155239 16 68 8.0 9.7 0.00 1.40 1.04 98 1007.9
20260506155139 16 68 9.7 11.3 0.00 1.40 1.04 97 1007.9
20260506154540 16 68 9.7 11.3 0.00 1.40 1.04 97 1007.9
20260506154440 16 68 9.7 11.3 0.00 1.40 1.04 97 1007.9
20260506153939 16 68 8.0 9.7 0.00 1.40 1.04 97 1008.1
20260506153839 16 68 8.0 9.7 0.00 1.40 1.04 97 1008.0
20260506153640 16 68 8.0 9.7 0.00 1.40 1.04 97 1007.8
20260506153540 16 90 8.0 11.3 0.00 1.40 1.04 97 1008.1
20260506152839 16 68 11.3 11.3 0.00 1.40 1.04 97 1008.0
20260506152639 16 68 11.3 12.9 0.00 1.40 1.04 97 1008.1
20260506152440 16 68 9.7 11.3 0.00 1.40 1.04 98 1008.0
20260506152240 16 68 8.0 8.0 0.00 1.40 1.04 97 1008.1
20260506152140 16 90 8.0 11.3 0.00 1.40 1.04 97 1008.1
20260506151739 16 68 11.3 12.9 0.00 1.40 1.04 97 1008.0
20260506151639 16 68 12.9 14.5 0.00 1.40 1.04 97 1008.0
20260506151540 16 68 9.7 11.3 0.00 1.40 1.04 97 1008.1
20260506151440 16 68 11.3 12.9 0.00 1.40 1.04 98 1008.1
20260506151339 16 68 8.0 11.3 0.00 1.40 1.04 98 1008.1
20260506151139 16 68 11.3 11.3 0.00 1.40 1.04 97 1008.3
20260506151039 16 68 12.9 14.5 0.00 1.40 1.04 97 1008.2
20260506150940 16 68 12.9 14.5 0.00 1.40 1.04 97 1008.2
20260506150640 16 68 11.3 12.9 0.00 1.40 1.04 98 1008.2
20260506150340 16 68 11.3 12.9 0.00 1.40 1.04 97 1008.3
20260506150139 16 68 11.3 12.9 0.00 1.40 1.04 97 1008.5
20260506145839 16 68 11.3 11.3 0.00 1.40 1.04 97 1008.3
20260506145639 16 68 9.7 12.9 0.00 1.40 1.04 98 1008.5
20260506145340 16 68 11.3 12.9 0.00 1.40 1.04 97 1008.5
20260506145139 16 68 11.3 12.9 0.00 1.40 1.04 98 1008.5
20260506145039 16 68 11.3 12.9 0.00 1.40 1.04 98 1008.5
20260506144840 16 90 11.3 12.9 0.00 1.40 1.04 97 1008.7
20260506144239 16 68 11.3 14.5 0.00 1.42 1.04 98 1008.4
20260506144139 16 68 12.9 14.5 0.00 1.42 1.04 98 1008.4
20260506144040 16 68 12.9 14.5 0.00 1.42 1.04 97 1008.6
20260506143840 16 90 12.9 14.5 0.00 1.42 1.04 98 1008.6
20260506143539 16 68 14.5 17.7 0.00 1.42 1.04 98 1008.7
20260506143340 16 90 11.3 14.5 0.00 1.45 1.04 98 1009.0
20260506143239 15 90 11.3 14.5 0.00 1.45 1.04 98 1008.7
20260506142540 15 68 11.3 12.9 0.00 1.45 1.04 99 1009.0
20260506142440 16 90 11.3 12.9 0.00 1.45 1.04 98 1008.8
20260506142341 15 68 12.9 14.5 0.00 1.45 1.04 98 1009.0
20260506142039 15 68 14.5 16.1 0.00 1.50 1.04 98 1009.0
20260506141939 15 90 12.9 14.5 0.00 1.50 1.04 98 1009.2
20260506141440 15 68 11.3 12.9 0.00 1.50 1.04 99 1009.1
20260506140640 15 68 11.3 14.5 0.00 1.50 1.04 98 1009.5
20260506140540 15 68 11.3 12.9 0.00 1.50 1.04 99 1009.4
20260506140140 15 68 12.9 14.5 0.00 1.50 1.04 98 1009.4
20260506135940 15 68 11.3 14.5 0.00 1.50 1.04 98 1009.3
20260506135839 15 68 12.9 14.5 0.00 1.50 1.04 98 1009.4
20260506135739 15 68 11.3 14.5 0.00 1.50 1.04 99 1009.5
20260506135539 15 68 11.3 12.9 0.00 1.50 1.04 98 1009.5
20260506135340 15 68 12.9 14.5 0.00 1.50 1.04 98 1009.2
20260506135239 15 68 12.9 14.5 0.00 1.50 1.04 98 1009.3
20260506135140 15 68 12.9 14.5 0.00 1.50 1.04 98 1009.5
20260506134939 15 68 11.3 12.9 0.00 1.50 1.04 98 1009.3
20260506134740 15 68 14.5 17.7 0.00 1.50 1.04 98 1009.5
20260506134640 15 68 11.3 14.5 0.00 1.50 1.04 99 1009.3
20260506134541 15 68 11.3 11.3 0.00 1.50 1.04 99 1009.2
20260506134339 15 68 12.9 14.5 0.00 1.50 1.04 98 1009.4
20260506134239 15 68 11.3 14.5 0.00 1.50 1.04 98 1009.5
20260506134039 15 68 14.5 16.1 0.00 1.50 1.04 98 1009.5
20260506133740 15 68 12.9 14.5 0.00 1.50 1.04 99 1009.4
20260506133640 15 68 11.3 14.5 0.00 1.50 1.04 99 1009.5
20260506133240 15 68 12.9 14.5 0.00 1.50 1.04 99 1009.9
20260506132539 15 68 11.3 11.3 0.00 1.50 1.04 99 1009.8
20260506132340 15 68 11.3 17.7 0.00 1.50 1.04 99 1009.7
20260506132240 15 68 14.5 16.1 0.00 1.50 1.04 99 1009.6
20260506132140 15 68 14.5 16.1 0.00 1.50 1.04 99 1009.6
20260506132040 15 68 12.9 14.5 0.00 1.50 1.04 99 1009.6
20260506131839 15 90 11.3 12.9 0.00 1.50 1.04 99 1009.6
20260506131639 15 90 12.9 16.1 0.00 1.50 1.04 99 1009.8
20260506130940 15 68 11.3 12.9 0.00 1.50 1.04 99 1009.6
20260506130739 15 68 11.3 12.9 0.00 1.50 1.04 99 1009.5
20260506130640 15 68 11.3 14.5 0.00 1.50 1.04 99 1009.7
20260506130339 15 90 11.3 12.9 0.00 1.50 1.04 99 1009.7
20260506125940 15 90 11.3 12.9 0.00 1.50 1.04 99 1009.8
20260506125840 15 68 11.3 11.3 0.00 1.50 1.04 99 1009.8
20260506125640 15 68 11.3 14.5 0.00 1.52 1.04 99 1009.7
20260506125540 15 68 11.3 14.5 0.00 1.52 1.04 99 1009.6
20260506125440 15 68 12.9 14.5 0.00 1.52 1.04 99 1009.8
20260506125339 15 68 12.9 14.5 0.00 1.52 1.04 99 1009.7
20260506125239 15 68 12.9 14.5 0.00 1.52 1.04 99 1009.7
20260506125139 15 68 14.5 14.5 0.00 1.52 1.04 99 1009.9
20260506124940 15 90 11.3 14.5 0.00 1.52 1.04 99 1009.7
20260506124640 15 68 11.3 12.9 0.00 1.52 1.04 99 1009.8
20260506124440 15 68 12.9 14.5 0.00 1.52 1.04 99 1009.9
20260506124240 14 68 11.3 14.5 0.00 1.52 1.04 99 1009.8
20260506123940 14 90 11.3 14.5 0.00 1.52 1.04 99 1010.0
20260506123840 14 90 12.9 14.5 0.00 1.52 1.04 99 1009.9
20260506123540 14 68 11.3 11.3 0.00 1.52 1.04 99 1010.0
20260506123440 14 68 12.9 14.5 0.00 1.52 1.04 99 1009.9
20260506123340 15 68 11.3 14.5 0.00 1.52 1.04 99 1009.8
20260506123140 14 68 12.9 14.5 0.00 1.52 1.04 99 1009.9
20260506122839 15 68 11.3 14.5 0.00 1.55 1.04 99 1009.8
20260506122739 14 90 12.9 14.5 0.00 1.55 1.04 99 1009.8
20260506122539 14 68 11.3 14.5 0.00 1.55 1.04 99 1009.8
20260506122439 14 90 12.9 14.5 0.00 1.55 1.04 99 1010.1
20260506122340 14 68 14.5 14.5 0.00 1.55 1.04 99 1010.1
20260506121740 13 68 12.9 14.5 0.00 1.55 1.04 99 1009.8
20260506121339 14 68 14.5 16.1 0.00 1.57 1.04 99 1010.0
20260506121239 14 68 12.9 14.5 0.00 1.57 1.04 99 1010.1
20260506121139 13 68 14.5 16.1 0.00 1.57 1.04 99 1010.2
20260506121040 14 68 14.5 16.1 0.00 1.57 1.04 99 1010.1
20260506120940 14 68 14.5 16.1 0.00 1.57 1.04 99 1010.1
20260506120840 14 68 12.9 14.5 0.00 1.57 1.04 99 1010.0
20260506120340 13 68 12.9 14.5 0.00 1.57 1.04 99 1010.3
20260506120240 13 68 12.9 14.5 0.00 1.57 1.04 99 1010.3
20260506120139 13 68 12.9 14.5 0.00 1.57 1.04 99 1010.3
20260506120040 13 68 12.9 14.5 0.00 1.57 1.04 99 1010.2
20260506115840 13 68 12.9 14.5 0.00 1.57 1.04 99 1010.3
20260506115739 13 68 12.9 14.5 0.00 1.57 1.04 99 1010.3
20260506115540 13 68 12.9 16.1 0.00 1.57 1.04 99 1010.2
20260506115339 14 68 14.5 17.7 0.00 1.60 1.04 99 1010.3
20260506115239 14 68 14.5 16.1 0.00 1.60 1.04 99 1010.2
20260506115139 14 68 12.9 16.1 0.00 1.60 1.04 99 1010.4
20260506115040 14 68 12.9 14.5 0.00 1.60 1.04 99 1010.2
20260506114839 14 68 14.5 16.1 0.00 1.60 1.04 99 1010.3
20260506114639 14 68 14.5 17.7 0.00 1.60 1.04 99 1010.2
20260506114440 14 68 12.9 14.5 0.00 1.60 1.04 99 1010.5
20260506114139 14 68 12.9 14.5 0.03 1.60 1.04 99 1010.3
20260506113440 13 90 11.3 14.5 0.08 1.60 1.04 99 1010.4
20260506113340 14 68 12.9 14.5 0.08 1.60 1.04 99 1010.3
20260506113240 13 68 11.3 14.5 0.08 1.63 1.04 99 1010.5
20260506113140 13 90 11.3 12.9 0.10 1.63 1.04 99 1010.5
20260506112941 14 90 11.3 11.3 0.13 1.63 1.04 99 1010.4
20260506112739 13 68 12.9 14.5 0.13 1.63 1.04 99 1010.4
20260506112339 13 68 11.3 14.5 0.13 1.63 1.04 99 1010.5
20260506112240 13 68 11.3 12.9 0.13 1.63 1.04 99 1010.4
20260506112139 13 68 12.9 14.5 0.13 1.63 1.04 99 1010.4
20260506111940 13 68 11.3 14.5 0.13 1.63 1.04 99 1010.2
20260506111640 13 68 8.0 11.3 0.13 1.63 1.04 99 1010.6
20260506110940 13 68 9.7 11.3 0.13 1.63 1.04 99 1010.2
20260506110839 13 90 8.0 9.7 0.13 1.63 1.04 99 1010.5
20260506110740 13 90 8.0 9.7 0.13 1.63 1.04 99 1010.6
20260506110340 13 90 11.3 11.3 0.13 1.63 1.04 99 1010.6
20260506110139 13 112 9.7 11.3 0.13 1.63 1.04 99 1010.5
20260506105839 13 90 8.0 9.7 0.13 1.63 1.04 99 1010.5
20260506105739 13 90 9.7 9.7 0.13 1.63 1.04 99 1010.7
20260506105540 13 90 8.0 9.7 0.13 1.63 1.04 99 1010.6
20260506105440 13 90 8.0 9.7 0.13 1.63 1.04 99 1010.7
20260506104940 13 90 6.4 8.0 0.18 1.63 1.04 99 1010.6
20260506104840 13 90 6.4 8.0 0.18 1.63 1.04 99 1010.8
20260506104740 13 112 6.4 9.7 0.18 1.63 1.04 99 1010.7
20260506104540 13 90 6.4 8.0 0.18 1.63 1.04 99 1011.1
20260506104240 13 90 6.4 6.4 0.18 1.60 1.02 99 1010.8
20260506104040 13 90 6.4 6.4 0.18 1.60 1.02 99 1010.8
20260506103939 13 90 6.4 8.0 0.18 1.60 1.02 99 1011.0
20260506103340 13 90 8.0 9.7 0.13 1.55 0.94 99 1010.9
20260506103240 13 68 8.0 9.7 0.10 1.52 0.91 99 1010.8
20260506103040 13 68 11.3 11.3 0.08 1.50 0.89 99 1010.7
20260506102840 14 90 12.9 14.5 0.08 1.50 0.89 99 1010.5
20260506102440 13 90 12.9 16.1 0.08 1.50 0.89 99 1010.4
20260506102340 13 90 12.9 14.5 0.08 1.50 0.89 99 1010.6
20260506102240 13 112 14.5 17.7 0.08 1.50 0.89 99 1010.4
20260506102139 13 90 14.5 17.7 0.08 1.50 0.89 99 1010.6
20260506101840 14 68 12.9 14.5 0.08 1.50 0.89 99 1010.6
20260506101740 13 90 11.3 14.5 0.08 1.50 0.89 99 1010.7
20260506101640 13 90 11.3 14.5 0.08 1.50 0.89 99 1010.6
20260506101539 13 68 11.3 14.5 0.08 1.50 0.89 99 1010.6
20260506101339 13 90 11.3 14.5 0.08 1.50 0.89 99 1010.7
20260506101239 13 112 11.3 11.3 0.08 1.50 0.89 99 1010.6
20260506101040 13 90 8.0 9.7 0.08 1.50 0.89 99 1010.8
20260506100640 13 90 8.0 9.7 0.08 1.50 0.89 99 1011.1
20260506100540 13 90 11.3 12.9 0.08 1.50 0.89 99 1010.8
20260506100340 13 90 8.0 9.7 0.08 1.50 0.89 99 1010.7
20260506100239 13 90 8.0 11.3 0.08 1.50 0.89 99 1010.7
20260506100140 13 90 8.0 9.7 0.08 1.50 0.89 99 1010.5
20260506100040 13 90 8.0 11.3 0.08 1.50 0.89 99 1010.6
20260506095939 13 90 11.3 11.3 0.08 1.50 0.89 99 1010.7
20260506095739 13 90 9.7 11.3 0.08 1.50 0.89 99 1010.5
20260506095639 13 90 8.0 9.7 0.08 1.50 0.89 99 1010.5
20260506095340 13 90 8.0 9.7 0.08 1.50 0.89 99 1010.6
20260506095040 13 90 9.7 11.3 0.05 1.45 0.86 99 1010.5
20260506094840 13 90 8.0 9.7 0.05 1.45 0.86 99 1010.7
20260506094740 13 112 6.4 8.0 0.05 1.45 0.86 99 1010.8
20260506094539 13 90 6.4 9.7 0.05 1.45 0.86 99 1010.8
20260506094040 13 90 6.4 9.7 0.03 1.42 0.84 99 1010.6
20260506093940 13 90 8.0 9.7 0.03 1.42 0.84 99 1010.8
20260506093840 13 90 9.7 9.7 0.03 1.42 0.84 99 1010.6
20260506093640 13 68 6.4 9.7 0.00 1.40 0.79 99 1010.5
20260506093340 13 112 8.0 9.7 0.00 1.40 0.79 99 1010.5
20260506093239 13 90 9.7 11.3 0.00 1.40 0.79 99 1010.7
20260506093139 13 112 9.7 11.3 0.00 1.40 0.79 99 1010.6
20260506092740 14 90 9.7 11.3 0.00 1.40 0.79 99 1010.2
20260506092339 14 90 8.0 9.7 0.00 1.40 0.79 99 1010.3
20260506092039 14 90 8.0 9.7 0.03 1.40 0.79 99 1010.2
20260506091939 14 90 9.7 11.3 0.03 1.40 0.79 99 1010.1
20260506091340 13 158 3.2 6.4 0.03 1.40 0.79 99 1010.1
20260506091039 14 135 4.8 8.0 0.03 1.40 0.79 99 1010.1
20260506090939 14 112 3.2 6.4 0.03 1.40 0.79 99 1010.0
20260506090840 14 158 3.2 6.4 0.03 1.40 0.79 99 1009.8
20260506090740 14 135 6.4 8.0 0.03 1.40 0.79 99 1010.0
20260506090640 14 180 3.2 3.2 0.03 1.40 0.79 99 1009.8
20260506090439 14 135 4.8 8.0 0.03 1.40 0.79 99 1009.9
20260506090140 15 68 12.9 14.5 0.03 1.40 0.79 98 1010.1
20260506085839 14 112 9.7 11.3 0.03 1.40 0.79 98 1010.0
20260506085640 14 112 9.7 11.3 0.03 1.40 0.79 98 1010.2
20260506085540 15 112 9.7 11.3 0.03 1.40 0.79 98 1010.1
20260506085440 15 68 6.4 9.7 0.03 1.40 0.79 98 1010.6
20260506085140 14 68 11.3 14.5 0.03 1.42 0.79 98 1010.3
20260506084839 14 90 16.1 19.3 0.03 1.42 0.79 98 1010.1
20260506084740 14 68 11.3 12.9 0.03 1.42 0.79 99 1010.1
20260506084640 14 68 14.5 16.1 0.03 1.42 0.79 99 1010.2
20260506084340 14 68 14.5 16.1 0.03 1.42 0.79 99 1010.2
20260506084239 14 68 14.5 14.5 0.03 1.42 0.79 99 1010.3
20260506083940 14 68 11.3 14.5 0.03 1.45 0.79 99 1010.2
20260506083840 13 68 12.9 16.1 0.03 1.45 0.79 99 1010.3
20260506083639 14 90 12.9 14.5 0.05 1.45 0.79 99 1010.1
20260506083439 13 90 12.9 14.5 0.05 1.45 0.79 99 1009.9
20260506083339 13 90 11.3 14.5 0.05 1.45 0.79 99 1009.9
20260506082740 13 90 11.3 12.9 0.08 1.50 0.79 99 1010.2
20260506082639 13 90 11.3 12.9 0.08 1.50 0.79 99 1010.2
20260506082239 13 90 11.3 14.5 0.08 1.50 0.79 99 1010.5
20260506082039 13 90 9.7 11.3 0.05 1.45 0.76 99 1010.6
20260506081940 13 135 9.7 11.3 0.05 1.45 0.76 99 1010.4
20260506081639 13 90 9.7 11.3 0.05 1.45 0.76 99 1010.5
20260506081040 13 90 9.7 11.3 0.08 1.45 0.76 99 1010.6
20260506080539 13 112 11.3 12.9 0.08 1.45 0.76 99 1010.8
20260506080439 13 90 11.3 12.9 0.08 1.45 0.76 99 1010.6
20260506080339 13 90 11.3 11.3 0.08 1.45 0.76 99 1010.5
20260506080140 13 90 9.7 9.7 0.08 1.45 0.76 99 1010.4
20260506073340 13 90 6.4 9.7 0.05 1.40 0.71 99 1010.7
20260506073240 13 90 8.0 9.7 0.05 1.40 0.71 99 1010.4
20260506072840 13 90 6.4 8.0 0.08 1.40 0.71 99 1010.6
20260506072740 13 112 6.4 6.4 0.08 1.40 0.71 99 1010.5
20260506072539 13 90 6.4 8.0 0.08 1.40 0.71 99 1010.5
20260506071940 13 112 4.8 6.4 0.08 1.40 0.71 99 1010.7
20260506071839 13 112 6.4 9.7 0.08 1.40 0.71 99 1010.7
20260506071639 13 112 6.4 8.0 0.08 1.40 0.71 99 1010.8
20260506071340 13 90 3.2 8.0 0.05 1.37 0.69 99 1010.5
20260506071240 13 112 3.2 4.8 0.05 1.37 0.69 99 1010.6
20260506071039 13 90 4.8 6.4 0.05 1.37 0.69 99 1010.8
20260506070839 13 68 3.2 3.2 0.05 1.37 0.69 99 1010.7
20260506070140 13 180 3.2 6.4 0.03 1.35 0.64 99 1010.6
20260506062240 13 90 8.0 11.3 0.25 1.30 0.61 99 1010.7
20260506062040 13 135 8.0 11.3 0.25 1.30 0.61 99 1010.8
20260506061840 13 112 6.4 9.7 0.25 1.30 0.61 99 1010.8
20260506061339 13 112 6.4 9.7 0.28 1.30 0.61 99 1011.1
20260506061139 13 112 8.0 9.7 0.28 1.30 0.61 99 1011.0
20260506060940 13 112 6.4 8.0 0.30 1.30 0.61 99 1010.9
20260506060740 13 112 6.4 6.4 0.30 1.30 0.61 99 1011.0
20260506060540 13 112 8.0 9.7 0.30 1.30 0.61 99 1010.9
20260506060440 13 112 6.4 11.3 0.30 1.30 0.61 99 1011.2
20260506051239 13 90 9.7 11.3 0.23 1.02 0.30 99 1010.8
20260506050939 13 90 11.3 12.9 0.23 0.97 0.28 99 1011.0
20260506050840 13 112 9.7 11.3 0.23 0.97 0.28 99 1011.0
20260506050639 13 90 11.3 14.5 0.23 0.97 0.28 99 1010.8
20260506050439 13 90 11.3 14.5 0.23 0.97 0.28 99 1010.8
20260506050339 13 112 11.3 11.3 0.23 0.97 0.28 99 1010.7
20260506050140 13 112 12.9 16.1 0.25 0.97 0.28 99 1010.6
20260506044840 13 90 11.3 11.3 0.18 0.89 0.20 99 1010.8
20260506044439 13 68 9.7 9.7 0.13 0.86 0.18 99 1010.9
20260506044140 13 90 8.0 9.7 0.13 0.86 0.18 99 1010.9
20260506043940 13 90 9.7 11.3 0.10 0.84 0.13 99 1011.1
20260506043839 13 68 9.7 9.7 0.10 0.84 0.13 99 1011.0
20260506043739 13 68 9.7 11.3 0.10 0.84 0.13 99 1011.1
20260506043539 13 90 8.0 9.7 0.10 0.84 0.13 99 1011.3
20260506043340 13 90 8.0 9.7 0.10 0.84 0.13 99 1011.2
20260506043240 13 90 8.0 9.7 0.10 0.84 0.13 99 1011.2
20260506043140 13 90 8.0 9.7 0.10 0.84 0.13 99 1011.3
20260506042840 13 90 8.0 9.7 0.08 0.79 0.10 99 1011.3
20260506042739 13 90 6.4 8.0 0.08 0.79 0.10 99 1011.2
20260506042440 13 90 6.4 8.0 0.08 0.79 0.10 99 1011.0
20260506042240 13 68 6.4 6.4 0.08 0.79 0.10 99 1011.1
20260506042040 13 68 6.4 8.0 0.08 0.79 0.10 99 1011.1
20260506041939 13 90 8.0 9.7 0.08 0.79 0.10 99 1011.0
20260506041639 13 68 6.4 6.4 0.05 0.76 0.08 99 1011.2
20260506041540 13 68 6.4 8.0 0.05 0.76 0.08 99 1011.2
20260506041339 14 68 8.0 9.7 0.05 0.76 0.08 99 1011.1
20260506041040 13 68 8.0 9.7 0.03 0.74 0.05 99 1011.1
20260506040940 13 68 9.7 9.7 0.03 0.74 0.05 99 1010.9
20260506040739 14 90 8.0 9.7 0.03 0.74 0.05 99 1011.0
20260506040440 13 90 6.4 8.0 0.03 0.74 0.05 99 1011.0
20260506040340 13 68 8.0 9.7 0.03 0.74 0.05 99 1011.3
20260506040140 14 90 6.4 8.0 0.00 0.71 0.03 99 1011.1
20260506040040 14 90 6.4 6.4 0.00 0.71 0.03 99 1011.0
20260506035739 14 90 6.4 9.7 0.00 0.71 0.03 99 1010.9
20260506035639 14 90 8.0 9.7 0.00 0.71 0.03 99 1011.0
20260506035540 13 90 8.0 9.7 0.00 0.71 0.03 99 1011.1
20260506035440 13 90 8.0 9.7 0.00 0.71 0.03 99 1010.9
20260506035340 13 90 9.7 11.3 0.00 0.71 0.03 99 1010.9
20260506035140 13 90 8.0 9.7 0.00 0.71 0.03 99 1010.9
20260506035040 13 90 8.0 9.7 0.00 0.71 0.03 99 1010.9
20260506034940 13 90 8.0 11.3 0.00 0.71 0.03 99 1010.9
20260506034639 13 112 8.0 9.7 0.00 0.71 0.03 99 1010.9
20260506034539 13 112 8.0 9.7 0.00 0.71 0.03 99 1011.0
20260506034440 13 90 8.0 9.7 0.00 0.71 0.03 99 1010.8
20260506034340 13 90 6.4 9.7 0.00 0.71 0.03 99 1010.9
20260506034240 13 135 6.4 8.0 0.00 0.71 0.03 99 1011.0
20260506034140 13 112 4.8 6.4 0.00 0.71 0.03 99 1011.0
20260506033840 13 135 3.2 3.2 0.00 0.71 0.03 99 1010.9
20260506033740 13 112 3.2 4.8 0.00 0.71 0.03 99 1010.7
20260506033140 13 90 8.0 11.3 0.00 0.71 0.03 99 1011.0
20260506033040 13 90 9.7 11.3 0.00 0.71 0.03 99 1010.9
20260506032739 14 90 9.7 11.3 0.00 0.71 0.03 99 1010.9
20260506032340 14 90 9.7 9.7 0.00 0.71 0.03 99 1010.8
20260506032140 13 90 9.7 11.3 0.00 0.71 0.03 99 1010.7
20260506032040 14 90 9.7 11.3 0.00 0.71 0.03 99 1010.6
20260506031739 14 90 9.7 11.3 0.00 0.71 0.03 99 1010.9
20260506031640 14 90 9.7 9.7 0.00 0.71 0.03 99 1010.9
20260506031440 14 90 8.0 9.7 0.00 0.71 0.03 99 1010.8
20260506031339 13 90 8.0 9.7 0.00 0.71 0.03 99 1010.9
20260506031240 14 90 8.0 9.7 0.00 0.71 0.03 99 1010.8
20260506031040 14 90 8.0 9.7 0.00 0.71 0.03 99 1011.0
20260506030840 13 90 8.0 9.7 0.00 0.71 0.03 99 1010.9
20260506030740 14 90 8.0 9.7 0.00 0.71 0.03 99 1011.1
20260506030339 13 90 9.7 11.3 0.00 0.71 0.03 99 1010.9
20260506025840 13 90 9.7 9.7 0.00 0.71 0.03 99 1011.3
20260506025740 13 90 8.0 11.3 0.00 0.71 0.03 99 1011.4
20260506025439 13 90 8.0 9.7 0.00 0.71 0.03 99 1011.6
20260506025040 13 90 8.0 9.7 0.00 0.71 0.03 99 1011.7
20260506024940 14 112 8.0 9.7 0.00 0.71 0.03 99 1011.6
20260506024840 13 90 9.7 9.7 0.00 0.71 0.03 99 1011.8
20260506024740 13 90 8.0 9.7 0.00 0.71 0.03 99 1011.6
20260506024640 14 90 6.4 8.0 0.00 0.71 0.03 99 1011.6
20260506024540 13 90 8.0 9.7 0.00 0.71 0.03 99 1011.8
20260506024239 14 90 6.4 8.0 0.00 0.71 0.03 99 1011.6
20260506024039 13 90 6.4 8.0 0.00 0.71 0.03 99 1011.7
20260506023939 13 90 6.4 8.0 0.00 0.71 0.03 99 1011.7
20260506023740 13 90 6.4 8.0 0.00 0.71 0.03 99 1011.8
20260506023639 13 90 6.4 8.0 0.00 0.71 0.03 99 1011.6
20260506023339 13 112 6.4 8.0 0.00 0.71 0.03 99 1011.9
20260506023140 13 90 6.4 8.0 0.00 0.71 0.03 99 1011.7
20260506023040 13 90 6.4 8.0 0.00 0.71 0.03 99 1011.8
20260506022940 13 90 6.4 8.0 0.00 0.71 0.03 99 1011.7
20260506022639 13 112 6.4 8.0 0.00 0.71 0.03 99 1011.9
20260506022539 14 90 6.4 8.0 0.00 0.71 0.03 99 1011.6
20260506022439 13 90 6.4 6.4 0.00 0.71 0.03 99 1011.7
20260506021839 13 112 6.4 8.0 0.00 0.71 0.03 99 1011.5
20260506021740 14 90 6.4 8.0 0.00 0.71 0.03 99 1011.6
20260506021640 14 90 6.4 9.7 0.00 0.71 0.03 99 1011.6
20260506021440 13 90 6.4 8.0 0.00 0.71 0.03 99 1011.8
20260506020839 14 90 6.4 8.0 0.00 0.71 0.03 99 1011.8
20260506020739 13 90 6.4 8.0 0.00 0.71 0.03 99 1011.9
20260506020540 13 68 6.4 6.4 0.00 0.71 0.03 99 1011.8
20260506020139 13 90 6.4 8.0 0.00 0.71 0.03 99 1012.0
20260506015940 14 68 6.4 9.7 0.00 0.71 0.03 99 1011.8
20260506015840 13 90 6.4 8.0 0.00 0.71 0.03 99 1012.0
20260506015640 14 90 6.4 8.0 0.00 0.71 0.03 99 1011.7